Home > Weather > Lexington > Past weeks

Flag for USA Past Weather in Lexington, North Carolina, USA — Yesterday and Last 2 Weeks

Now
87 °F

Sunny.


Feels Like: 90 °F
Forecast: 68 / 87 °F
Wind: 3 mph from South

Location: Davidson County Airport

Current Time: Jul 1, 2016 at 4:51:37 PM

Latest Report: Jul 1, 2016 at 3:55 PM


Visibility: 10 mi

Pressure: 29.96 "Hg

Humidity: 52%

Dew Point: 67 °F

Location of LexingtonLocation

Past Weather in Lexington — Graph

°F

Lexington Temperature Yesterday

Maximum temperature yesterday: 85 °F (at 4:55 PM)
Minimum temperature yesterday: 66 °F (at 6:35 AM)
Average temperature yesterday: 73 °F

High & Low Weather Summary for the Past Weeks

 TemperatureHumidityPressure
High92 °F (Jun 23, 2:50 PM)100% (Jun 28, 1:50 AM)30.41 "Hg (Jun 28, 1:50 AM)
Low52 °F (Jun 19, 5:30 AM)34% (Jun 19, 2:10 PM)29.71 "Hg (Jun 16, 11:30 PM)
Average75 °F74%30.07 "Hg
* Reported Jun 16 3:10 PM — Jul 1 3:35 PM, Lexington, Weather by CustomWeather, © 2016

Note: Actual official high and low records may vary slightly from our data, if they occured in-between our weather recording intervals... More about our weather records

Advertising

Lexington Weather History for the Previous 24 Hours

Scroll right to see more
 ConditionsComfort  
Time TempWeatherWind HumidityBarometerVisibility
3:35 PM
Fri, Jul 1
87 °FSunny.3 mph53%29.96 "Hg10 mi
3:15 PM86 °FSunny.No wind54%29.96 "Hg10 mi
2:55 PM85 °FSunny.No wind58%29.97 "Hg10 mi
2:35 PM85 °FScattered clouds.No wind63%29.97 "Hg10 mi
2:15 PM84 °FScattered clouds.3 mph66%29.99 "Hg10 mi
1:55 PM84 °FScattered clouds.6 mph67%29.99 "Hg10 mi
1:35 PM83 °FScattered clouds.3 mph69%29.99 "Hg10 mi
1:15 PM82 °FBroken clouds.3 mph72%30.00 "Hg10 mi
12:55 PM82 °FScattered clouds.No wind72%30.00 "Hg10 mi
12:35 PM82 °FScattered clouds.No wind73%30.00 "Hg10 mi
12:15 PM80 °FScattered clouds.5 mph76%30.01 "Hg10 mi
11:55 AM79 °FBroken clouds.No wind76%30.02 "Hg10 mi
11:35 AM78 °FMore clouds than sun.No wind80%30.02 "Hg10 mi
11:15 AM77 °FOvercast.3 mph82%30.02 "Hg10 mi
10:55 AM76 °FOvercast.No wind82%30.02 "Hg10 mi
10:35 AM77 °FOvercast.No wind83%30.03 "Hg10 mi
10:15 AM76 °FMostly cloudy.No wind86%30.03 "Hg10 mi
9:55 AM75 °FMore clouds than sun.No wind87%30.03 "Hg10 mi
9:35 AM75 °FMore clouds than sun.5 mph89%30.02 "Hg10 mi
9:15 AM75 °FMore clouds than sun.5 mph89%30.02 "Hg10 mi
8:55 AM74 °FBroken clouds.5 mph92%30.02 "Hg10 mi
8:35 AM73 °FBroken clouds.3 mph93%30.01 "Hg10 mi
8:15 AM73 °FScattered clouds.No wind95%30.01 "Hg10 mi
7:55 AM72 °FScattered clouds.No wind96%30.00 "Hg7 mi
7:35 AM71 °FFog.No wind99%29.99 "Hg5 mi
7:15 AM70 °FFog.No wind100%29.99 "Hg4 mi
6:55 AM70 °FFog.No wind100%30.00 "Hg3 mi
6:35 AM69 °FFog.No wind100%30.00 "Hg3 mi
6:15 AM69 °FFog.No wind100%29.99 "Hg2 mi
5:55 AM68 °FFog.No wind100%29.99 "Hg1 mi
5:35 AM69 °FFog.No wind100%29.99 "Hg2 mi
5:15 AM69 °FFog.No wind100%29.98 "Hg1 mi
4:55 AM69 °FFog.No wind100%29.99 "Hg1 mi
4:35 AM69 °FFog.No wind100%29.99 "Hg2 mi
3:55 AM69 °FFog.No wind100%30.00 "Hg1 mi
3:35 AM70 °FFog.No wind99%30.00 "Hg2 mi
2:55 AM71 °FFog.No wind99%30.00 "Hg1 mi
2:35 AM71 °FFog.No wind99%30.00 "Hg1 mi
2:15 AM71 °FFog.No wind99%30.01 "Hg2 mi
1:55 AM71 °FFog.No wind99%30.02 "Hg2 mi
1:35 AM72 °FFog.No wind99%30.02 "Hg4 mi
1:15 AM71 °FFog.No wind99%30.02 "Hg2 mi
12:55 AM72 °FClear.No wind98%30.01 "Hg7 mi
12:35 AM71 °FFog.No wind99%30.01 "Hg5 mi
12:15 AM71 °FPassing clouds.No wind99%30.00 "Hg7 mi
11:55 PM
Thu, Jun 30
71 °FPartly cloudy.No wind99%30.00 "Hg7 mi
11:35 PM70 °FFog.No wind99%30.00 "Hg2 mi
11:15 PM70 °FFog.No wind99%29.99 "Hg2 mi
10:55 PM70 °FFog.No wind99%30.01 "Hg2 mi
10:35 PM70 °FFog.No wind99%30.01 "Hg3 mi
10:15 PM69 °FFog.No wind100%30.02 "Hg2 mi
9:55 PM69 °FFog.No wind100%30.02 "Hg2 mi
9:35 PM69 °FFog.No wind99%30.01 "Hg2 mi
9:15 PM68 °FFog.No wind99%30.02 "Hg3 mi
8:55 PM68 °FFog.No wind98%30.01 "Hg1 mi
8:35 PM68 °FHeavy rain. Mostly cloudy.3 mph91%30.01 "Hg1 mi
8:15 PM78 °FRain. Broken clouds.7 mph84%30.00 "Hg7 mi
7:55 PM79 °FScattered clouds.No wind79%30.00 "Hg10 mi
7:35 PM78 °FScattered clouds.No wind83%30.00 "Hg10 mi
7:15 PM82 °FScattered clouds.3 mph68%29.99 "Hg10 mi
6:55 PM84 °FPartly sunny.3 mph64%29.99 "Hg10 mi
6:35 PM83 °FSunny.No wind69%29.99 "Hg10 mi
5:55 PM82 °FSunny.No wind67%29.99 "Hg10 mi
5:35 PM84 °FScattered clouds.No wind64%29.99 "Hg10 mi
5:15 PM83 °FPartly sunny.No wind64%29.99 "Hg10 mi
4:55 PM85 °FPartly sunny.3 mph64%29.99 "Hg10 mi
4:35 PM83 °FPartly sunny.No wind65%29.99 "Hg10 mi
4:15 PM82 °FScattered clouds.No wind68%30.00 "Hg10 mi
Weather by CustomWeather, © 2016

See weather overviewHow to use our weather pages